Williamsport, PA

12:11 PM EDT on May 27, 2018 (GMT -0400)
Williamsport Rgnl

Weather History for KIPT - March, 2013

Change the Weather History Date:

Tuesday, March 19, 2013

  Actual Average Record
Temperature  
Mean Temperature 37 °F 39 °F  
Max Temperature 46 °F 49 °F 78 °F (1918)
Min Temperature 28 °F 30 °F -1 °F (1967)
Degree Days  
Heating Degree Days 28 26  
Month to date heating degree days 542 551  
Since 1 July heating degree days 4708 5018  
Cooling Degree Days 0 0  
Month to date cooling degree days 0 0  
Year to date cooling degree days 0 0  
Moisture  
Dew Point 28 °F    
Average Humidity 70    
Maximum Humidity 100    
Minimum Humidity 40    
Precipitation  
Precipitation 0.02 in 0.09 in 1.66 in (1896)
Month to date precipitation 1.16 1.70  
Year to date precipitation 5.62 6.74  
Snow  
Snow T in 0.20 in 5.00 in (1896)
Month to date snowfall 5.4 5.1  
Since 1 July snowfall 32.5 33.1  
Snow Depth 3.00 in    
Sea Level Pressure  
Sea Level Pressure 29.81 in    
Wind  
Wind Speed 8 mph (North)    
Max Wind Speed 26 mph    
Max Gust Speed 36 mph    
Visibility 6 miles    
Events Rain , Snow    
T = Trace of Precipitation, MM = Missing Value Source: NWS Daily Summary

Daily Weather History Graph

Daily Weather History Graph

Search for Another Location

Airport or City:

Astronomy

Mar. 19, 2013 Rise Set
Actual Time 7:12 AM EDT 7:18 PM EDT
Civil Twilight 6:44 AM EDT 7:46 PM EDT
Nautical Twilight 6:12 AM EDT 8:18 PM EDT
Astronomical Twilight 5:39 AM EDT 8:51 PM EDT
Moon 11:57 AM EDT (3/19) 2:07 AM EDT (3/19)
Length of Visible Light 13h 01m
Length of Day
12h 06m
Waxing Crescent, 49% of the Moon is Illuminated
Mar 19
Waxing Crescent
Mar 19
First Quarter
Mar 27
Full
Apr 3
Last Quarter
Apr 10
New

Hourly Weather History & Observations

Time (EDT) Temp. Windchill Dew Point Humidity Pressure Visibility Wind Dir Wind Speed Gust Speed Precip Events Conditions
12:21 AM 30.2 °F 22.6 °F 28.4 °F 93% 29.88 in 3.0 mi NE 8.1 mph - 0.00 in Rain Light Freezing Rain
12:30 AM 30.2 °F 22.6 °F 28.4 °F 93% 29.88 in 3.0 mi NE 8.1 mph - 0.00 in Rain Light Freezing Rain
12:54 AM 30.9 °F 22.8 °F 28.9 °F 92% 29.88 in 4.0 mi ENE 9.2 mph - 0.00 in Rain Light Freezing Rain
1:16 AM 30.2 °F 21.3 °F 28.4 °F 93% 29.85 in 4.0 mi ENE 10.4 mph - 0.00 in   Overcast
1:35 AM 30.2 °F 23.4 °F 28.4 °F 93% 29.85 in 4.0 mi ENE 6.9 mph - 0.00 in Rain Light Freezing Rain
1:54 AM 30.9 °F 24.3 °F 28.9 °F 92% 29.86 in 3.0 mi NE 6.9 mph - 0.00 in Rain Light Freezing Rain
2:54 AM 33.1 °F 26.9 °F 30.0 °F 89% 29.83 in 4.0 mi ENE 6.9 mph - 0.00 in Rain Light Freezing Rain
3:54 AM 34.0 °F 27.2 °F 30.0 °F 85% 29.80 in 8.0 mi East 8.1 mph - 0.01 in   Overcast
4:54 AM 34.0 °F 26.0 °F 30.9 °F 89% 29.78 in 9.0 mi East 10.4 mph - 0.00 in   Overcast
5:54 AM 34.0 °F 27.2 °F 30.9 °F 89% 29.76 in 7.0 mi ENE 8.1 mph - N/A   Overcast
6:38 AM 33.8 °F 28.6 °F 32.0 °F 93% 29.75 in 5.0 mi ENE 5.8 mph - 0.01 in Rain Light Rain
6:54 AM 34.0 °F 31.0 °F 32.0 °F 92% 29.79 in 4.0 mi NW 3.5 mph - 0.01 in Rain Light Rain
7:01 AM 33.8 °F - 32.0 °F 93% 29.77 in 5.0 mi Calm Calm - 0.00 in   Overcast
7:23 AM 33.8 °F - 32.0 °F 93% 29.78 in 3.0 mi Calm Calm - 0.00 in   Overcast
7:34 AM 33.8 °F - 32.0 °F 93% 29.79 in 3.0 mi Calm Calm - 0.00 in Rain Light Rain
7:45 AM 33.8 °F - 32.0 °F 93% 29.78 in 1.8 mi Calm Calm - 0.00 in   Overcast
7:54 AM 33.1 °F - 32.0 °F 96% 29.81 in 1.8 mi Calm Calm - 0.00 in   Overcast
8:05 AM 33.8 °F - 32.0 °F 93% 29.78 in 2.0 mi Calm Calm - 0.00 in Snow Light Snow
8:54 AM 34.0 °F - 33.1 °F 96% 29.81 in 2.0 mi Calm Calm - 0.00 in   Overcast
9:08 AM 33.8 °F - 32.0 °F 93% 29.79 in 3.0 mi Calm Calm - N/A   Overcast
9:44 AM 33.8 °F - 32.0 °F 93% 29.80 in 4.0 mi Calm Calm - N/A   Overcast
9:54 AM 34.0 °F - 33.1 °F 96% 29.81 in 4.0 mi Calm Calm - N/A   Overcast
10:33 AM 35.6 °F - 33.8 °F 93% 29.78 in 5.0 mi Calm Calm - N/A   Overcast
10:47 AM 35.6 °F 30.7 °F 33.8 °F 93% 29.77 in 7.0 mi SE 5.8 mph - N/A   Overcast
10:54 AM 35.1 °F 32.2 °F 33.1 °F 92% 29.79 in 9.0 mi SE 3.5 mph - N/A   Overcast
11:04 AM 35.6 °F - 33.8 °F 93% 29.77 in 10.0 mi Calm Calm - N/A   Overcast
11:54 AM 37.9 °F 32.7 °F 32.0 °F 79% 29.75 in 10.0 mi ENE 6.9 mph - N/A   Mostly Cloudy
12:54 PM 39.0 °F 36.8 °F 33.1 °F 79% 29.75 in 10.0 mi ESE 3.5 mph - 0.00 in   Overcast
1:54 PM 41.0 °F 38.0 °F 32.0 °F 70% 29.73 in 10.0 mi SE 4.6 mph - N/A   Overcast
2:54 PM 44.1 °F 42.5 °F 33.1 °F 65% 29.69 in 10.0 mi Variable 3.5 mph - N/A   Overcast
3:54 PM 43.0 °F 36.4 °F 28.9 °F 58% 29.71 in 10.0 mi West 12.7 mph - N/A   Mostly Cloudy
4:54 PM 43.0 °F 38.8 °F 28.9 °F 58% 29.70 in 10.0 mi NNW 6.9 mph - N/A   Overcast
5:54 PM 43.0 °F 34.5 °F 21.0 °F 42% 29.75 in 10.0 mi West 19.6 mph 33.4 mph N/A   Overcast
6:54 PM 37.9 °F 28.2 °F 16.0 °F 41% 29.81 in 10.0 mi West 18.4 mph 32.2 mph N/A   Overcast
7:54 PM 35.1 °F 27.9 °F 15.1 °F 44% 29.84 in 10.0 mi WNW 9.2 mph - N/A   Mostly Cloudy
8:54 PM 34.0 °F 23.4 °F 15.1 °F 46% 29.86 in 10.0 mi WNW 17.3 mph 26.5 mph N/A   Mostly Cloudy
9:54 PM 30.9 °F 22.8 °F 19.9 °F 64% 29.88 in 10.0 mi WSW 9.2 mph - N/A   Mostly Cloudy
10:54 PM 30.9 °F 21.7 °F 19.9 °F 64% 29.89 in 10.0 mi West 11.5 mph - N/A   Overcast
11:24 PM 30.2 °F 18.9 °F 21.2 °F 69% 29.88 in 2.5 mi WNW 16.1 mph 23.0 mph 0.00 in Snow Light Snow
11:32 PM 28.4 °F 19.1 °F 23.0 °F 80% 29.88 in 1.5 mi WNW 10.4 mph 19.6 mph 0.00 in Snow Light Snow
11:38 PM 28.4 °F 19.7 °F 23.0 °F 80% 29.88 in 3.0 mi West 9.2 mph - 0.00 in Snow Light Snow
11:47 PM 28.4 °F 18.5 °F 23.0 °F 80% 29.88 in 9.0 mi West 11.5 mph - 0.00 in Snow Light Snow
11:54 PM 28.9 °F 18.2 °F 21.9 °F 75% 29.90 in 7.0 mi West 13.8 mph - 0.00 in Snow Light Snow